sat.trackr.live / text

‹ back to catalog

CONNECTA IOT-9

NORAD 64534 · 2025-135G

PAYLOAD ACTIVE UNKNOWN

§ Identity

Operator
Country
TURK
Launch date
2025-06-23
Launch site
AFWTR
Launch vehicle
Mass (kg)
RCS (m²)

External: N2YO · Heavens-Above · Gunter

§ Orbital elements

Epoch: 2026-09-21T19:24:25.686432Z

Period
94.69 min
Inclination
97.4832°
Eccentricity
0.0005057
Mean motion
15.20738008 rev/d
Perigee alt
500.1 km
Apogee alt
507.1 km
Semi-major
6,881.8 km
B*
2.4798e-4
RAAN
18.8884°
Arg perigee
179.9068°
Mean anomaly
180.2169°
Rev number
6,950

§ Raw data

CONNECTA IOT-91 64534U 25135G   26264.80863063  .00005389  00000+0  24798-3 0  99992 64534  97.4832  18.8884 0005057 179.9068 180.2169 15.20738008 69502

JSON: /api/v1/satellites/64534 · /tle

For live sub-satellite position, see the globe view (requires WebGL).

§ Visibility from observer

Set your observer location to see the next 7 days of passes ≥ 10°. The values pass through the URL so the page stays shareable.

No JS? Fill the form by hand. The geolocation button needs JavaScript.

§ Radio — SatNOGS DB

ModeDescriptionDownlinkUplink
FM Mode S telemetry 2.240 GHz
GMSK Mode U - GMSK 4k8 AX.25 TLM 401.510 MHz

2 transmitters · refreshed weekly from db.satnogs.org